Miscellaneous Local Product
Issued by NWS Hastings, NE

Home | Current Version | Previous Version | Text Only | Print | Product List | Glossary On
Versions: 1 2 3 4 5 6 7 8 9 10 11 12 13 14 15 16 17 18 19 20 21 22 23 24 25 26 27 28 29 30 31 32 33 34 35 36 37 38 39 40 41 42 43 44 45 46 47 48 49 50
000
AXUS43 KGID 061402
MISGRI

GID CWA HOURLY WEATHER ROUNDUP
NATIONAL WEATHER SERVICE HASTINGS NE
800 AM CST FRI MAR 06 2015

NOTE: "FAIR" INDICATES FEW OR NO CLOUDS BELOW 12,000 FEET WITH NO
SIGNIFICANT WEATHER AND/OR OBSTRUCTIONS TO VISIBILITY.

...SOUTH CENTRAL NEBRASKA...

CITY           SKY/WX    TMP DP  RH WIND       PRES   REMARKS
GRAND ISLAND   SUNNY     26  15  63 W9        30.21R WCI  17
HASTINGS       SUNNY     28  15  58 W9        30.21R WCI  19
KEARNEY        CLEAR     27  16  63 SW6       30.22R WCI  20
ORD            CLEAR     21  14  74 CALM      30.18S
YORK           SUNNY     27  18  69 W10       30.20S WCI  17
AURORA         SUNNY     27  17  65 W8        30.20S WCI  19
LEXINGTON      CLEAR     22  18  83 NW5       30.22R WCI  16
HOLDREGE       CLEAR     28  18  64 W7        30.21S WCI  21
HEBRON         SUNNY     28  15  58 W7        30.24S WCI  21

...NEBRASKA PANHANDLE...

CITY           SKY/WX    TMP DP  RH WIND       PRES   REMARKS
CHADRON        PTCLDY    29  21  72 SW7       30.19S WCI  22
ALLIANCE       CLEAR     26  20  77 W10       30.18S WCI  16
SCOTTSBLUFF    CLEAR     26  20  77 NW6       30.23R WCI  19
SIDNEY         CLEAR     29  19  66 W13       30.23R WCI  19

...WESTERN AND NORTH CENTRAL NEBRASKA...

CITY           SKY/WX    TMP DP  RH WIND       PRES   REMARKS
VALENTINE      CLEAR     22  18  85 SW8       30.14S WCI  12
AINSWORTH      CLEAR     28  20  71 W5        30.14S WCI  23
ONEILL         CLEAR     27  20  75 W8        30.14S WCI  19
BROKEN BOW     CLEAR     31  16  54 CALM      30.18S
IMPERIAL         N/A     28  17  63 W9        30.24R WCI  19
NORTH PLATTE   PTCLDY    22  17  81 NW5       30.22R WCI  16
MCCOOK         CLEAR     25  18  74 W9        30.25S WCI  15

...EASTERN NEBRASKA...

CITY           SKY/WX    TMP DP  RH WIND       PRES   REMARKS
NORFOLK        SUNNY     28  17  63 NW3       30.16R
SO SIOUX CITY  FAIR      19  11  70 E5        30.15S WCI  12
TEKAMAH        SUNNY     23  14  68 SE5       30.18S WCI  17
COLUMBUS       SUNNY     25   9  50 W7        30.20R WCI  17
ALBION         SUNNY     21  14  73 CALM      30.18R
OMAHA EPPLEY   MOSUNNY   23  17  78 SE6       30.20S WCI  16
OFFUTT AFB     SUNNY     20  15  81 E2        30.19R
MILLARD        SUNNY     20  15  79 SE3       30.19S
LINCOLN        SUNNY     26  15  63 SW7       30.24R WCI  18
NEBRASKA CITY  SUNNY     29  15  56 W15       30.21R WCI  18
BEATRICE       SUNNY     28  18  66 SW5       30.24S WCI  22
FALLS CITY     SUNNY     32  21  64 W6        30.25R WCI  26

...NORTHERN KANSAS...

CITY           SKY/WX    TMP DP  RH WIND       PRES   REMARKS
GOODLAND       CLEAR     30  20  66 W9        30.26S WCI  22
HILL CITY      CLEAR     27  18  69 W8        30.28R WCI  19
NORTON         SUNNY     25  18  74 SW8       30.26R WCI  16
PHILLIPSBURG   CLEAR     27  19  74 W6        30.28R WCI  20
SMITH CENTER   SUNNY     21  16  79 SW6       30.27S WCI  14
BELOIT         SUNNY     25  16  68 CALM      30.28R
HAYS           SUNNY     27  12  54 W6        30.29R WCI  20
RUSSELL        SUNNY     28  20  71 SW9       30.28R WCI  19
CONCORDIA      SUNNY     30  17  58 SW13      30.26R WCI  20
SALINA         SUNNY     30  23  75 SW12      30.31R WCI  20
TOPEKA         SUNNY     33  20  58 SW9       30.32R WCI  25



USA.gov is the U.S. government's official web portal to all federal, state and local government web resources and services.